Regional Weather Roundup
Issued by NWS Goodland, KS

Home | Current Version | Previous Version | Graphics & Text | Print | Product List | Glossary Off
Versions: 1 2 3 4 5 6 7 8 9 10 11 12 13 14 15 16 17 18 19 20 21 22 23 24 25 26 27 28 29 30 31 32 33 34 35 36 37 38 39 40 41 42 43 44 45 46 47 48 49 50

783
ASUS43 KGLD 242308
RWRGLD

GOODLAND FORECAST AREA HOURLY WEATHER ROUNDUP
NATIONAL WEATHER SERVICE GOODLAND KS
400 PM MST FRI FEB 24 2017

...OFFICIAL OBSERVATIONS...

CITY           SKY/WX    TMP DP  RH WIND       PRES   REMARKS
GOODLAND KS    CLOUDY    29  19  66 N14       30.01R WCI  18
HILL CITY KS   CLOUDY    31  14  49 N20G29    30.05R WCI  19
IMPERIAL NEB   CLOUDY    25  16  68 N15       30.05R WCI  13
MCCOOK NEB     MOSUNNY   27  16  63 N15       30.06R WCI  15
AKRON CO       CLOUDY    23  17  78 N7        30.00R
BURLINGTON CO  CLOUDY    27  16  63 N13       30.01R WCI  16
LIMON CO       CLOUDY    23  13  65 N7        29.97R
$$

...UNOFFICIAL OBSERVATIONS...

CITY           SKY/WX    TMP DP  RH WIND       PRES   REMARKS
LENORA KS        N/A     28  32 100 N10         N/A  WCI  19
SHARON SPRINGS   N/A     30  19  62 NW14G21     N/A  WCI  19
TRENTON NEB      N/A     25  32 100 CALM        N/A
KIT CARSON CO    N/A     28  15  57 MISG        N/A
YUMA CO        PTSUNNY   25  19  80 N5        30.02R
$$




USA.gov is the U.S. government's official web portal to all federal, state and local government web resources and services.